Stations météo

réclame
Mon MeteoGroup
Cabauw Tower, Pays-Bas (6348): Température de l'air & dewpoint: 23.01.2020 01:00:00 - 29.01.2020 01:00:00 (CET)Cabauw Tower, Pays-Bas (6348): Température de l'air 5cm: 23.01.2020 01:00:00 - 29.01.2020 01:00:00 (CET)Cabauw Tower, Pays-Bas (6348): Vitesse du vent & gusts: 23.01.2020 01:00:00 - 29.01.2020 01:00:00 (CET)Cabauw Tower, Pays-Bas (6348): Direction du vent: 23.01.2020 01:00:00 - 29.01.2020 01:00:00 (CET)Cabauw Tower, Pays-Bas (6348): reduced air pressure: 23.01.2020 01:00:00 - 29.01.2020 01:00:00 (CET)Cabauw Tower, Pays-Bas (6348): visibility: 23.01.2020 01:00:00 - 29.01.2020 01:00:00 (CET)Cabauw Tower, Pays-Bas (6348): Quantités de précipitations: 23.01.2020 01:00:00 - 29.01.2020 01:00:00 (CET)
Date & Time tt [°C] td [°C] tt 5cm [°C] ff [km/h] ff [knt] fx [km/h] fx [knt] dd ppp [hPa] vv [km] rr [mm]
29.01.2020 01:00:00 3,6 2,5 3,0 14 8 29 16 SW 999,3 21 0,0
29.01.2020 00:00:00 3,5 2,2 2,9 22 12 36 19 SW 998,8 26 0,0
28.01.2020 23:00:00 3,9 2,2 3,0 25 14 36 19 SW 998,3 30 0,1
28.01.2020 22:00:00 4,1 2,0 3,0 25 14 43 23 SW 997,9 32 0,0
28.01.2020 21:00:00 4,7 2,0 4,0 32 18 47 25 SW 997,8 27 0,0
28.01.2020 20:00:00 3,8 1,2 2,9 22 12 40 21 SW 997,6 25 0,0
28.01.2020 19:00:00 5,0 2,1 4,1 25 14 43 23 WSW 997,4 27 0,0
28.01.2020 18:00:00 4,8 1,9 3,9 25 14 61 33 WSW 996,9 25 0,0
28.01.2020 17:00:00 5,4 1,4 4,8 29 16 47 25 WSW 996,6 29 0,0
28.01.2020 16:00:00 5,6 0,2 4,8 36 19 54 29 WSW 996,1 33 0,0
28.01.2020 15:00:00 5,8 1,0 5,0 36 19 58 31 W 995,2 33 0,1
28.01.2020 14:00:00 5,4 0,9 4,9 40 21 58 31 W 994,3 31 0,0
28.01.2020 13:00:00 6,1 2,1 5,4 36 19 54 29 W 993,0 33 0,0
28.01.2020 12:00:00 5,8 2,6 5,3 36 19 65 35 W 991,9 30 0,2
28.01.2020 11:00:00 5,6 2,9 5,0 40 21 58 31 W 990,4 23 0,2
28.01.2020 10:00:00 4,8 3,5 4,6 29 16 47 25 SW 988,9 32 0,4
28.01.2020 09:00:00 4,9 3,2 4,4 36 19 58 31 WSW 988,4 39 0,2
28.01.2020 08:00:00 4,6 3,1 4,3 36 19 65 35 SW 987,7 19 0,3
28.01.2020 07:00:00 5,9 5,1 5,5 18 10 29 16 S 987,9 33 0,2
28.01.2020 06:00:00 5,7 5,0 5,3 18 10 25 14 S 989,0 28 1,1
28.01.2020 05:00:00 5,3 4,3 4,9 18 10 40 21 SSW 990,4 12 1,2
28.01.2020 04:00:00 5,8 4,6 5,3 25 14 36 19 SSW 991,4 46 0,0
28.01.2020 03:00:00 6,1 4,4 5,5 29 16 47 25 SW 991,8 47 0,0
28.01.2020 02:00:00 7,0 5,9 6,6 22 12 36 19 SW 992,3 25 0,0
28.01.2020 01:00:00 6,9 5,4 6,2 25 14 50 27 WSW 992,5 45 0,0
28.01.2020 00:00:00 7,8 6,5 7,3 40 21 54 29 SW 991,7 41 0,9
27.01.2020 23:00:00 7,2 6,5 6,9 25 14 40 21 SSE 992,3 6 2,0
27.01.2020 22:00:00 7,4 6,8 7,1 22 12 29 16 SSE 994,2 4,5 1,6
27.01.2020 21:00:00 7,5 6,4 7,0 18 10 29 16 SSE 996,0 24 0,0
27.01.2020 20:00:00 7,1 6,2 6,4 18 10 25 14 SSE 997,5 26 0,0
27.01.2020 19:00:00 7,6 6,7 7,0 18 10 22 12 SSE 999,2 20 0,0
27.01.2020 18:00:00 7,3 5,9 6,1 14 8 18 10 SSE 1000,4 19 0,0
27.01.2020 17:00:00 7,7 6,5 7,2 7 4 25 14 SSW 1001,5 20 0,0
27.01.2020 16:00:00 8,7 6,7 8,3 18 10 25 14 SSW 1002,3 22 0,0
27.01.2020 15:00:00 9,1 7,2 8,8 18 10 32 18 SSW 1002,9 22 0,0
27.01.2020 14:00:00 9,2 7,3 9,1 18 10 32 18 SSW 1003,3 27 0,0
27.01.2020 13:00:00 9,3 7,3 9,1 22 12 32 18 SW 1004,4 28 0,0
27.01.2020 12:00:00 9,0 8,0 8,9 18 10 25 14 SSW 1005,4 15 0,0
27.01.2020 11:00:00 8,7 7,8 8,5 14 8 25 14 S 1005,8 16 0,0
27.01.2020 10:00:00 8,4 7,6 7,9 18 10 25 14 S 1006,2 12 0,0
27.01.2020 09:00:00 8,4 7,8 8,1 18 10 25 14 S 1006,4 10 0,0
27.01.2020 08:00:00 8,4 7,9 8,1 18 10 29 16 SSW 1006,3 10 0,0
27.01.2020 07:00:00 8,3 7,8 8,0 18 10 29 16 SSW 1006,5 8 0,0
27.01.2020 06:00:00 8,3 7,8 8,0 18 10 29 16 SSW 1006,8 10 0,0
27.01.2020 05:00:00 8,2 7,7 7,9 22 12 36 19 SSW 1007,2 11 0,0
27.01.2020 04:00:00 7,9 7,6 7,6 25 14 36 19 SSW 1007,4 9 0,8
27.01.2020 03:00:00 7,6 7,2 7,3 25 14 40 21 S 1007,8 5 1,8
27.01.2020 02:00:00 7,4 6,7 7,1 25 14 32 18 S 1008,4 7 0,8
27.01.2020 01:00:00 7,2 6,1 6,8 22 12 36 19 S 1009,0 10 0,9
27.01.2020 00:00:00 7,3 6,0 6,9 25 14 36 19 S 1009,7 9 0,3
26.01.2020 23:00:00 7,4 5,8 6,9 25 14 36 19 S 1010,2 10 0,2
26.01.2020 22:00:00 7,3 5,3 6,8 25 14 36 19 S 1011,0 11 0,0
26.01.2020 21:00:00 6,8 5,1 6,1 18 10 25 14 S 1011,5 10 0,0
26.01.2020 20:00:00 7,0 5,2 6,1 18 10 32 18 SSW 1012,0 10 0,0
26.01.2020 19:00:00 7,8 6,3 6,8 14 8 18 10 SSW 1012,1 11 0,0
26.01.2020 18:00:00 8,4 6,3 7,9 14 8 22 12 S 1012,2 13 0,0
26.01.2020 17:00:00 8,5 6,5 7,8 14 8 22 12 S 1012,4 12 0,0
26.01.2020 16:00:00 9,0 6,7 8,5 14 8 22 12 S 1012,7 11 0,0
26.01.2020 15:00:00 9,2 6,6 9,4 14 8 22 12 S 1013,0 11 0,0
26.01.2020 14:00:00 8,5 6,2 9,0 18 10 25 14 S 1013,6 10 0,0
26.01.2020 13:00:00 8,0 5,8 8,5 14 8 25 14 SSW 1014,2 10 0,0
26.01.2020 12:00:00 7,1 5,5 7,5 14 8 25 14 S 1014,9 9 0,0
26.01.2020 11:00:00 5,1 4,2 5,4 11 6 18 10 S 1015,6 7 0,0
26.01.2020 10:00:00 3,5 3,3 3,1 11 6 22 12 SSE 1015,6 6 0,0
26.01.2020 09:00:00 2,7 2,7 2,3 14 8 25 14 SE 1015,6 5 0,0
26.01.2020 08:00:00 2,6 2,6 2,4 18 10 22 12 SE 1015,4 3,9 0,0
26.01.2020 07:00:00 2,5 2,5 2,4 11 6 18 10 SE 1015,7 2,7 0,0
26.01.2020 06:00:00 2,4 2,3 2,3 14 8 25 14 SSE 1016,2 0,6 0,0
26.01.2020 05:00:00 2,1 2,1 2,0 14 8 25 14 SE 1016,3 0,2 0,0
26.01.2020 04:00:00 1,7 1,7 1,6 18 10 25 14 SE 1016,7 0,3 0,0
26.01.2020 03:00:00 1,4 1,3 1,3 14 8 22 12 SE 1017,3 0,3 0,0
26.01.2020 02:00:00 1,1 1,0 1,0 18 10 25 14 SE 1018,0 0,2 0,0
26.01.2020 01:00:00 1,0 0,9 1,0 18 10 25 14 SE 1018,7 0,2 0,0
26.01.2020 00:00:00 1,2 1,1 1,1 14 8 22 12 SE 1019,1 0,2 0,0
25.01.2020 23:00:00 1,2 1,1 1,2 11 6 18 10 SE 1019,4 0,3 0,0
25.01.2020 22:00:00 1,5 1,3 1,4 11 6 18 10 SSE 1020,1 1,3 0,0
25.01.2020 21:00:00 2,3 1,7 2,2 11 6 18 10 SSE 1020,4 3,4 0,0
25.01.2020 20:00:00 2,5 1,8 2,4 11 6 18 10 S 1020,5 3,4 0,0
25.01.2020 19:00:00 2,4 1,7 2,3 11 6 14 8 SSE 1020,4 2,8 0,0
25.01.2020 18:00:00 2,3 1,4 2,1 11 6 14 8 SSE 1020,3 3,2 0,0
25.01.2020 17:00:00 2,3 1,1 2,2 7 4 14 8 SSE 1020,2 4,3 0,0
25.01.2020 16:00:00 2,2 1,0 2,3 14 8 18 10 SSE 1020,5 4,3 0,0
25.01.2020 15:00:00 2,2 1,1 2,3 14 8 18 10 S 1020,9 4,0 0,0
25.01.2020 14:00:00 2,1 1,2 2,4 14 8 18 10 SSE 1021,5 4,0 0,0
25.01.2020 13:00:00 2,4 1,4 2,5 14 8 22 12 S 1022,0 6 0,0
25.01.2020 12:00:00 2,1 1,1 2,4 14 8 22 12 S 1022,5 6 0,0
25.01.2020 11:00:00 2,1 1,1 2,3 14 8 18 10 S 1022,5 7 0,0
25.01.2020 10:00:00 1,9 1,3 1,9 14 8 22 12 S 1022,2 5 0,0
25.01.2020 09:00:00 1,8 1,4 1,8 14 8 22 12 S 1022,1 4,9 0,0
25.01.2020 08:00:00 1,8 1,4 1,7 11 6 18 10 S 1021,7 6 0,0
25.01.2020 07:00:00 1,9 1,6 1,8 11 6 18 10 S 1021,7 3,5 0,0
25.01.2020 06:00:00 2,0 1,7 1,9 11 6 18 10 S 1021,4 3,2 0,0
25.01.2020 05:00:00 2,1 1,9 2,0 11 6 22 12 S 1021,6 3,0 0,0
25.01.2020 04:00:00 2,3 1,8 2,1 14 8 22 12 S 1021,7 3,5 0,0
25.01.2020 03:00:00 2,3 1,9 2,2 11 6 22 12 SSW 1022,3 3,3 0,0
25.01.2020 02:00:00 2,2 1,8 2,1 14 8 18 10 S 1022,4 3,4 0,0
25.01.2020 01:00:00 2,2 1,8 2,1 11 6 18 10 S 1022,6 3,0 0,0
25.01.2020 00:00:00 2,3 2,1 2,2 11 6 14 8 S 1022,8 2,7 0,0
24.01.2020 23:00:00 2,4 2,2 2,3 11 6 18 10 S 1023,1 2,9 0,0
24.01.2020 22:00:00 2,4 2,3 2,3 11 6 18 10 S 1023,1 2,8 0,0
24.01.2020 21:00:00 2,5 2,3 2,4 11 6 18 10 S 1023,2 2,2 0,0
24.01.2020 20:00:00 2,5 2,2 2,4 11 6 18 10 S 1023,3 1,9 0,0
24.01.2020 19:00:00 2,6 2,2 2,5 11 6 18 10 SSW 1023,2 2,8 0,0
24.01.2020 18:00:00 2,9 2,2 2,8 14 8 18 10 SSW 1022,7 4,0 0,0
24.01.2020 17:00:00 3,0 2,3 2,9 14 8 18 10 SSW 1022,5 4,1 0,0
24.01.2020 16:00:00 3,3 2,4 3,2 14 8 22 12 SSW 1022,4 4,4 0,0
24.01.2020 15:00:00 3,6 2,5 3,9 18 10 22 12 S 1022,4 5 0,0
24.01.2020 14:00:00 3,6 2,5 4,1 11 6 18 10 S 1023,4 6 0,0
24.01.2020 13:00:00 3,6 2,4 4,0 11 6 14 8 S 1023,8 6 0,0
24.01.2020 12:00:00 3,5 2,7 3,9 11 6 14 8 S 1024,1 4,3 0,0
24.01.2020 11:00:00 2,8 2,2 3,0 11 6 14 8 S 1024,3 3,8 0,0
24.01.2020 10:00:00 2,0 1,7 2,0 7 4 14 8 SSW 1024,3 3,0 0,0
24.01.2020 09:00:00 1,9 1,8 1,9 11 6 18 10 SW 1023,9 2,0 0,0
24.01.2020 08:00:00 2,1 2,0 2,0 11 6 14 8 S 1023,7 1,7 0,0
24.01.2020 07:00:00 2,0 1,9 2,0 7 4 11 6 SSW 1023,7 0,6 0,0
24.01.2020 06:00:00 2,1 2,0 2,0 7 4 14 8 WSW 1023,9 1,0 0,0
24.01.2020 05:00:00 2,1 1,7 2,0 11 6 14 8 SSW 1024,2 1,6 0,0
24.01.2020 04:00:00 2,1 1,8 1,9 4 2 14 8 SSW 1024,8 2,7 0,0
24.01.2020 03:00:00 1,9 1,8 1,4 4 2 7 4 SSE 1025,3 3,3 0,0
24.01.2020 02:00:00 1,1 1,1 0,6 4 2 7 4 NE 1025,8 1,9 0,0
24.01.2020 01:00:00 1,1 0,8 0,2 4 2 4 2 SE 1026,5 1,1 0,0
24.01.2020 00:00:00 1,0 0,9 -0,8 0 0 7 4 N 1026,7 1,3 0,0
23.01.2020 23:00:00 1,0 0,9 -1,9 4 2 7 4 SE 1026,9 1,1 0,0
23.01.2020 22:00:00 1,5 1,2 -0,5 7 4 11 6 E 1027,3 2,2 0,0
23.01.2020 21:00:00 1,9 1,4 0,1 7 4 11 6 ESE 1027,6 2,9 0,0
23.01.2020 20:00:00 2,9 2,3 1,6 7 4 11 6 E 1028,1 2,8 0,0
23.01.2020 19:00:00 3,0 2,0 -0,3 7 4 11 6 E 1028,3 6 0,0
23.01.2020 18:00:00 3,2 2,0 -0,4 4 2 7 4 ESE 1028,6 7 0,0
23.01.2020 17:00:00 4,2 2,1 1,9 4 2 11 6 E 1028,9 9 0,0
23.01.2020 16:00:00 5,6 2,6 5,2 7 4 14 8 ESE 1029,6 11 0,0
23.01.2020 15:00:00 6,0 3,6 6,2 7 4 11 6 ESE 1030,2 9 0,0
23.01.2020 14:00:00 6,0 3,2 6,3 7 4 11 6 E 1031,2 16 0,0
23.01.2020 13:00:00 6,2 4,6 6,5 7 4 14 8 ESE 1031,9 7 0,0
23.01.2020 12:00:00 5,5 5,0 5,9 11 6 18 10 E 1032,7 3,3 0,0
23.01.2020 11:00:00 5,4 5,3 5,4 7 4 14 8 SE 1033,4 2,9 0,0
23.01.2020 10:00:00 5,0 5,0 5,0 11 6 18 10 SE 1033,6 2,9 0,0
23.01.2020 09:00:00 5,0 4,9 4,9 11 6 14 8 SE 1033,7 1,7 0,0
23.01.2020 08:00:00 5,3 5,2 5,2 7 4 11 6 E 1033,7 0,1 0,0
23.01.2020 07:00:00 5,5 5,4 5,4 7 4 11 6 ESE 1033,9 0,2 0,0
23.01.2020 06:00:00 5,2 5,1 4,5 4 2 7 4 E 1034,2 0,4 0,0
23.01.2020 05:00:00 5,3 5,3 5,2 4 2 4 2 ESE 1034,7 0,9 0,0
23.01.2020 04:00:00 5,4 5,3 5,3 4 2 7 4 SE 1035,2 0,9 0,0
23.01.2020 03:00:00 5,2 5,1 4,5 4 2 4 2 ENE 1035,6 0,3 0,0
23.01.2020 02:00:00 5,3 5,2 4,9 0 0 4 2 N 1036,1 0,6 0,0
23.01.2020 01:00:00 5,4 5,4 5,2 4 2 7 4 SW 1036,4 1,0 0,0

tt = Température de l'air
td = dewpoint
tt 5cm = Température de l'air 5cm
ff = Vitesse du vent
fx = gusts
dd = Direction du vent
ppp = reduced air pressure
vv = visibility
rr = Quantités de précipitations

stations d'obs. à proximité